Location: Tamazert
(32.6352°N, 5.2072°W)
Time: 16:22:21
(UTC+00:00)

Courier 1B Rocket - Pass Details

Date: 05 October 2022
Orbit: 920 x 1202 km, 28.3° (Epoch: 01 December)

Event Time Altitude Azimuth Distance (km) Brightness Sun altitude
Rises 19:08:41 0° 255° (WSW) 3,833 9.5 -15.2°
Reaches altitude 10° 19:11:32 10° 251° (WSW) 2,835 8.5 -15.8°
Maximum altitude 19:18:14 57° 174° (S) 1,142 5.3 -17.2°
Enters shadow 19:21:38 28° 107° (ESE) 1,724 5.7 -17.9°
